Regional Weather Roundup
Issued by NWS

Home | Current Version | Previous Version | Graphics & Text | Print | Product List | Glossary On
Versions: 1 2 3 4 5 6 7 8 9 10 11 12 13 14 15 16 17 18 19 20 21 22 23 24 25 26 27 28 29 30 31 32 33 34 35 36 37 38 39 40 41 42 43 44 45 46 47 48 49 50
000
ASUS43 KLOT 191809
RWRIL

ILLINOIS REGIONAL WEATHER ROUNDUP
NATIONAL WEATHER SERVICE CHICAGO/ROMEOVILLE IL
100 PM CDT TUE SEP 19 2017

NOTE: "FAIR" INDICATES FEW OR NO CLOUDS BELOW 12,000 FEET WITH NO
SIGNIFICANT WEATHER AND/OR OBSTRUCTIONS TO VISIBILITY.

* THESE STATIONS ARE NOT UNDER NWS QUALITY CONTROL. THEY ALSO MAY NOT
  REPORT WEATHER SUCH AS PRECIPITATION OR FOG.

ILZ001-002-007-009-015-016-024-191900-
NORTHWEST ILLINOIS

CITY           SKY/WX    TMP DP  RH WIND       PRES   REMARKS
MOLINE         SUNNY     77  64  64 E6        29.95S
6HR MIN TEMP:  62; 6HR MAX TEMP:  77;

STERLING*        N/A     72  65  78 VRB6      29.97F
SAVANNA*       CLOUDY    70  64  81 E5        29.98S
$$

ILZ003-004-008-010-011-017-018-191900-
NORTH CENTRAL ILLINOIS

CITY           SKY/WX    TMP DP  RH WIND       PRES   REMARKS
ROCKFORD       MOSUNNY   76  64  66 SE3       29.96F
6HR MIN TEMP:  62; 6HR MAX TEMP:  77;

FREEPORT*      MOSUNNY   74  63  68 E3        29.98F
ROCHELLE*      PTSUNNY   75  65  70 CALM      29.96F
DE KALB*       CLOUDY    76  65  70 CALM      29.96F
PERU*          CLOUDY    71  64  78 CALM      29.97F
$$

ILZ005-006-012>014-019>023-191900-
NORTHEAST ILLINOIS

CITY           SKY/WX    TMP DP  RH WIND       PRES   REMARKS
CHICAGO-OHARE  CLOUDY    76  64  66 NE7       29.94F
6HR MIN TEMP:  66; 6HR MAX TEMP:  78; 6HR PCP: TRACE;

CHICAGO-MIDWAY MOSUNNY   76  64  66 E8        29.95S
6HR MIN TEMP:  68; 6HR MAX TEMP:  77; 6HR PCP:  0.07;

AURORA         SUNNY     77  67  71 N3        29.95F
6HR MIN TEMP:  63; 6HR MAX TEMP:  77;

LANSING*       MOSUNNY   76  66  69 NE7       29.95F
JOLIET*        SUNNY     78  67  69 CALM      29.94F HX  80
WAUKEGAN       CLOUDY    73  67  81 NE9       29.96S
6HR MIN TEMP:  65; 6HR MAX TEMP:  73; 6HR PCP:  0.14;

DUPAGE AIRPORT PTSUNNY   76  67  73 E7        29.94F
6HR MIN TEMP:  62; 6HR MAX TEMP:  77;

KANKAKEE*      PTSUNNY   76  64  66 CALM      29.95F
WHEELING       CLOUDY    74  68  81 NE6       29.97S
6HR MIN TEMP:  66; 6HR MAX TEMP:  75; 6HR PCP:  0.42;

MORRIS*        MOSUNNY   76  65  67 CALM      29.94F
ROMEOVILLE*    PTSUNNY   78  64  61 CALM      29.95F HX  80
NORTHERLY ISL    N/A     73  66  78 NE7         N/A
$$

LMZ740>746-191900-
SOUTHERN LAKE MICHIGAN

STATION/POSITION SKY/WX   TEMP    WIND        PRES    VSBY  WAVE
                          AIR SEA DIR/SP/G                  HT/PER
                          (F)     (DEG/KT/KT) (MB)    (MI)  (FT/S)
SOUTHERN BUOY              66 68   60/  8/  8 1015.4F         1/ 3
WILMETTE HARBOR            69 69   20/  6/  8   N/A           2/ 4
HARRISON CRIB              69      50/  9/ 10   N/A
CALUMET HARBOR             70      40/  7/ 10 1013.9S
BURNS HARBOR               69      30/  8/  9 1014.9F
MICHIGAN CITY              68     360/ 12/ 12   N/A
MICHIGAN CITY 6N           68 69   60/ 14/ 16   N/A           1/ 4
ST. JOSEPH                 67 69  120/  2/  4 1014.6          1
$$

ILZ025>027-034>036-040-047-049-050-058-095>099-191900-
WEST-CENTRAL ILLINOIS

CITY           SKY/WX    TMP DP  RH WIND       PRES   REMARKS
QUINCY         PTSUNNY   77  68  73 S8        29.95S
GALESBURG*     PTSUNNY   78  67  68 CALM      29.96F HX  80
MACOMB*        MOSUNNY   74  69  83 SE5       29.97F
JACKSONVILLE*  MOSUNNY   79  67  65 CALM      29.94F HX  81
PITTSFIELD*    MOSUNNY   79  69  71 S3        29.96S HX  81
$$

ILZ028>032-037-038-041>044-048-051>054-059>061-191900-
CENTRAL ILLINOIS

CITY           SKY/WX    TMP DP  RH WIND       PRES   REMARKS
PONTIAC        PTSUNNY   75  69  80 CALM      29.97S
BLOOMINGTON    PTSUNNY   76  65  68 VRB3      29.97S
DECATUR        PTSUNNY   77  69  76 NE6       29.96F
PEORIA         PTSUNNY   77  67  71 S6        29.95F
6HR MIN TEMP:  67; 6HR MAX TEMP:  78;

LACON*         CLOUDY    68  66  95 CALM      29.96S
LINCOLN*       CLOUDY    75  68  78 CALM      29.96F
SPRINGFIELD    PTSUNNY   80  67  64 CALM      29.94F HX  82
6HR MIN TEMP:  65; 6HR MAX TEMP:  83;

TAYLORVILLE    MOSUNNY   81  66  61 S3        29.94F HX  83
6HR MIN TEMP:  65; 6HR MAX TEMP:  81;

$$

ILZ033-039-045-046-055>057-062-063-191900-
EAST-CENTRAL ILLINOIS

CITY           SKY/WX    TMP DP  RH WIND       PRES   REMARKS
CHAMPAIGN      CLOUDY    72  66  81 CALM      29.97S
RANTOUL*       CLOUDY    74  69  85 CALM      29.96F
MATTOON        MOSUNNY   80  67  64 W7        29.94F HX  82
PARIS*         MOSUNNY   81  68  65 SW5       29.95F HX  83
$$

ILZ079-100>102-191900-
SOUTHWEST ILLINOIS

CITY           SKY/WX    TMP DP  RH WIND       PRES   REMARKS
ALTON          SUNNY     82  70  65 SE6       29.94F HX  86
CAHOKIA*       MOSUNNY   87  67  51 VRB3      29.93F HX  90
SPARTA*        PTSUNNY   82  68  62 S5        29.96F HX  84
$$

ILZ064>066-069>071-074>076-080>082-084>086-088>090-092>094-191900-
SOUTH-CENTRAL ILLINOIS

CITY           SKY/WX    TMP DP  RH WIND       PRES   REMARKS
CARBONDALE     MOSUNNY   83  71  67 CALM      29.95F HX  87
6HR MIN TEMP:  66; 6HR MAX TEMP:  83;

CAIRO*         SUNNY     83  73  69 CALM      29.95F HX  89
EFFINGHAM*     PTSUNNY   84  66  54 S7        29.95F HX  86
MARION         PTSUNNY   82  68  61 SE5       29.96F HX  85
MT. VERNON       N/A     82  69  64 S3        29.95  HX  85
CENTRALIA*     PTSUNNY   84  71  64 CALM      29.94F HX  88
SALEM*         MOSUNNY   84  66  54 SW6       29.95F HX  86
METROPOLIS*    MOSUNNY   84  70  61 S3        29.96F HX  89
$$

ILZ067-068-072-073-078-083-087-091-191900-
SOUTHEAST ILLINOIS

CITY           SKY/WX    TMP DP  RH WIND       PRES   REMARKS
LAWRENCEVILLE  MOSUNNY   80  68  66 CALM      29.95F HX  83
FLORA*         CLOUDY    84  68  57 S6        29.95F HX  87
FAIRFIELD*     PTSUNNY   83  67  59 CALM      29.94F HX  85
HARRISBURG*    MOSUNNY   82  69  65 CALM      29.95F HX  85
ROBINSON*      CLOUDY    81  67  63 NW3       29.95F HX  83
CARMI*           N/A     80  70  72 CALM      29.94F HAZE    HX  83
$$

ABBREVIATIONS USED IN REMARKS
   TC - TEMPERATURE IN CELSIUS
  WCI - WIND CHILL INDEX
   HX - HEAT INDEX
  VSB - VISIBILITY
$$




USA.gov is the U.S. government's official web portal to all federal, state and local government web resources and services.